Regional Weather Roundup
Issued by NWS Midland/Odessa, TX

Skip options and go directly to product.
Home | Oldest Version | Previous Version | Current Version | All | Graphics & Text | Save Text | Print | Product List | Glossary On

Skip product version selection by date and time.   
389
ASUS44 KMAF 231110
RWRMAF
MIDLAND AREA WEATHER ROUNDUP
NATIONAL WEATHER SERVICE MIDLAND TX
600 AM CDT THU OCT 23 2014

...IN SOUTHWEST TEXAS AND SOUTHEAST NEW MEXICO...

CITY           SKY/WX    TMP DP  RH WIND       PRES   REMARKS
ALPINE         CLOUDY    59  57  92 SW7       30.24S
ANDREWS        FOG       51  51 100 CALM      30.12F VSB 1/4
ARTESIA        NOT AVBL
BIG SPRING     CLOUDY    59  57  92 S5        30.15S VSB 3/4
CARLSBAD       FOG       60  59  96 SE5       30.10S VSB 1/4
DRYDEN           N/A     62  60  93 CALM      30.10S
FORT STOCKTON  CLEAR     57  56  96 S9        30.11R
GUAD PASS      CLEAR     55  53  93 SW13      30.22S
HOBBS          NOT AVBL
MARFA          CLOUDY    57  55  94 S3        30.22S
MIDLAND AIRPK  FOG       59  59 100 S8        30.13R VSB 1/2
MIDLAND INTL   FOG       55  54  96 SE8       30.11S VSB 1/4
ODESSA         CLEAR     54  52  93 SE7       30.12S FOG
PECOS          CLOUDY    57  56  96 NW3       30.10R FOG
PRESIDIO       FAIR      62  59  90 N7        30.12S
SEMINOLE       FOG       56  55  99 CALM      30.13S VSB 1/4
SNYDER         PTCLDY    56  54  91 S6        30.13F
WINK           CLEAR     55  53  93 CALM      30.09S
$$
...OTHER STATIONS IN TEXAS...

CITY           SKY/WX    TMP DP  RH WIND       PRES   REMARKS
ABILENE        CLOUDY    63  57  81 CALM      30.13R
AMARILLO       CLOUDY    60  58  92 SW7       30.10S
AUSTIN         CLOUDY    63  62  97 W3        30.10R
BROWNSVILLE    PTCLDY    68  66  93 NW3       30.00R
CORPUS CHRISTI PTCLDY    67  63  87 N8        30.03S
DALLAS FTW     CLOUDY    65  54  67 SE6       30.12R
DEL RIO        PTCLDY    63  62  97 N3        30.08R FOG
EL PASO        CLEAR     57  53  86 S3        30.14S
HOUSTON INT    MOCLDY    62  54  74 N5        30.08S
LUBBOCK        CLEAR     52  50  93 S5        30.11F
SAN ANGELO     CLEAR     56  54  93 SW3       30.12S
SAN ANTONIO    CLOUDY    67  65  93 S3        30.09F
WACO           LGT RAIN  64  59  83 CALM      30.11S
WICHITA FALLS  NOT AVBL
$$
...OTHER LOCATIONS IN NEW MEXICO...

CITY           SKY/WX    TMP DP  RH WIND       PRES   REMARKS
ALAMAGORDO     NOT AVBL
ALBUQUERQUE    CLEAR     52  44  74 CALM      30.21S
CANNON AFB     MOCLDY    57  56  99 W10       30.13S FOG
CLOVIS         CLOUDY    55  54  94 SW8       30.15S
HOLLOMAN AFB   CLEAR     52  48  86 CALM      30.15S
ROSWELL        CLOUDY    58  57  97 SE6       30.12S FOG
RUIDOSO        CLEAR     48  41  76 W9        30.29S
SANTA FE       CLEAR     43  34  70 N7        30.24S WCI  39
TRUTH OR CONSE CLEAR     53  47  79 SW7       30.18S
TUCUMCARI      CLEAR     55  51  86 W6        30.10R
$$

USA.gov is the U.S. government's official web portal to all federal, state and local government web resources and services.